Waarnemingen

Advertentie
Mijn weer
Ölands Norra Udde, Zweden (2575): temperatuur & dauwpunt: 12.02.2019 01:00:00 - 18.02.2019 01:00:00 (CET)Ölands Norra Udde, Zweden (2575): windsnelheid & windstoten: 12.02.2019 01:00:00 - 18.02.2019 01:00:00 (CET)Ölands Norra Udde, Zweden (2575): windrichting: 12.02.2019 01:00:00 - 18.02.2019 01:00:00 (CET)Ölands Norra Udde, Zweden (2575): luchtdruk: 12.02.2019 01:00:00 - 18.02.2019 01:00:00 (CET)Ölands Norra Udde, Zweden (2575): zicht: 12.02.2019 01:00:00 - 18.02.2019 01:00:00 (CET)Ölands Norra Udde, Zweden (2575): neerslag: 12.02.2019 01:00:00 - 18.02.2019 01:00:00 (CET)
Datum & Tijd tt [°C] td [°C] ff [km/u] ff [kn] fx [km/u] fx [kn] dd ppp [hPa] vv [km] rr [mm]
18.02.2019 01:00:00 1,5 1,0 6 3 8 4 Z 1021,5 - 0,0
18.02.2019 00:00:00 1,7 1,3 5 3 8 4 Z 1021,6 - 0,0
17.02.2019 23:00:00 1,7 1,1 6 4 12 6 Z 1021,5 - 0,0
17.02.2019 22:00:00 3,1 2,5 6 4 12 6 ZW 1021,5 - 0,0
17.02.2019 21:00:00 3,0 2,3 4 2 8 4 Z 1021,6 - 0,0
17.02.2019 20:00:00 2,9 2,2 5 3 8 4 Z 1021,5 - 0,0
17.02.2019 19:00:00 3,8 3,1 2 1 7 4 ZZO 1021,3 - 0,0
17.02.2019 18:00:00 3,8 3,1 0 0 8 4 N 1021,2 - 0,0
17.02.2019 17:00:00 4,0 3,1 4 2 8 4 ZZO 1020,8 - 0,0
17.02.2019 16:00:00 3,8 2,9 6 3 11 6 ZZO 1020,7 - 0,0
17.02.2019 15:00:00 4,2 3,2 5 3 11 6 ZO 1020,4 - 0,0
17.02.2019 14:00:00 4,5 3,6 6 3 11 6 OZO 1020,2 - 0,0
17.02.2019 13:00:00 3,8 3,2 10 5 15 8 ZO 1020,1 - 0,0
17.02.2019 12:00:00 3,7 3,3 5 3 15 8 O 1020,2 - 0,0
17.02.2019 11:00:00 4,1 3,7 6 4 10 6 NO 1019,8 - 0,0
17.02.2019 10:00:00 4,1 3,7 4 2 6 3 N 1019,4 - 0,0
17.02.2019 09:00:00 5,3 4,7 3 2 6 3 ZW 1019,2 - 0,0
17.02.2019 08:00:00 5,2 4,5 2 1 6 4 NW 1018,8 - 0,0
17.02.2019 07:00:00 5,3 4,1 3 2 23 12 NW 1018,3 - 0,0
17.02.2019 06:00:00 4,9 3,7 4 2 23 12 W 1017,7 - 0,0
17.02.2019 05:00:00 5,9 4,1 10 6 18 10 WZW 1017,3 - 0,0
17.02.2019 04:00:00 6,7 4,5 11 6 22 12 W 1016,9 - 0,0
17.02.2019 03:00:00 6,8 4,5 13 7 23 13 W 1016,5 - 0,0
17.02.2019 02:00:00 6,8 4,1 18 10 27 15 W 1016,0 - 0,0
17.02.2019 01:00:00 6,2 3,9 16 9 27 15 W 1015,5 - 0,0
17.02.2019 00:00:00 6,0 3,7 16 9 34 18 WZW 1015,0 - 0,0
16.02.2019 23:00:00 6,0 3,7 16 9 37 20 WZW 1014,8 - 0,0
16.02.2019 22:00:00 6,3 3,5 24 13 39 21 WZW 1014,2 - 0,0
16.02.2019 21:00:00 6,0 2,8 24 13 45 25 W 1014,1 - 0,0
16.02.2019 20:00:00 6,9 2,2 27 14 45 25 WZW 1013,5 - 0,0
16.02.2019 19:00:00 8,8 1,7 28 15 42 23 ZW 1012,9 50 0,0
16.02.2019 18:00:00 9,6 0,5 24 13 38 20 WZW 1013,1 50 0,0
16.02.2019 17:00:00 10,0 0,6 22 12 38 20 ZW 1012,5 50 0,0
16.02.2019 16:00:00 - 0,4 21 12 40 22 ZZW 1012,3 50 0,0
16.02.2019 15:00:00 - 0,0 22 12 44 24 ZW 1012,9 20 0,0
16.02.2019 14:00:00 - -0,2 24 13 44 24 ZZW 1013,3 15 0,0
16.02.2019 13:00:00 - 0,2 26 14 41 22 ZZW 1014,1 28 0,0
16.02.2019 12:00:00 10,5 -0,3 26 14 40 22 ZZW 1014,9 10 0,0
16.02.2019 11:00:00 9,0 -0,1 24 13 42 23 ZZW 1015,7 9 0,0
16.02.2019 10:00:00 7,8 0,0 26 14 42 23 ZW 1016,6 14 0,0
16.02.2019 09:00:00 6,3 -0,2 23 12 35 19 ZZW 1017,0 43 0,0
16.02.2019 08:00:00 4,5 -0,5 16 9 30 16 ZZW 1017,6 46 0,0
16.02.2019 07:00:00 4,2 -0,6 21 12 30 16 ZZW 1017,9 40 0,0
16.02.2019 06:00:00 4,5 -1,3 19 10 33 18 ZZW 1018,5 50 0,0
16.02.2019 05:00:00 4,4 -1,8 21 11 33 18 ZZW 1019,2 50 0,0
16.02.2019 04:00:00 4,1 -1,7 19 10 40 21 ZZW 1020,1 50 0,0
16.02.2019 03:00:00 4,3 -1,3 22 12 40 21 ZW 1020,9 45 0,0
16.02.2019 02:00:00 4,4 -0,8 21 11 35 19 ZW 1021,4 37 0,0
16.02.2019 01:00:00 5,0 -0,6 21 11 37 20 ZZW 1022,2 48 0,0
16.02.2019 00:00:00 4,8 -1,0 23 12 38 21 ZW 1022,6 50 0,0
15.02.2019 23:00:00 5,2 -0,8 26 14 38 21 ZW 1022,8 50 0,0
15.02.2019 22:00:00 4,9 -0,1 19 10 31 17 ZW 1023,2 50 0,0
15.02.2019 21:00:00 5,1 -0,1 18 10 31 17 ZW 1023,6 50 0,0
15.02.2019 20:00:00 5,6 -0,3 19 11 31 17 ZW 1023,8 50 0,0
15.02.2019 19:00:00 6,1 0,4 14 8 29 16 ZW 1024,0 50 0,0
15.02.2019 18:00:00 7,1 1,0 18 10 30 16 WZW 1024,1 50 0,0
15.02.2019 17:00:00 7,7 1,5 20 11 38 21 WZW 1024,4 50 0,0
15.02.2019 16:00:00 8,5 2,9 20 11 38 21 ZW 1024,6 50 0,0
15.02.2019 15:00:00 9,2 3,4 24 13 38 21 ZW 1024,8 50 0,0
15.02.2019 14:00:00 9,6 4,6 21 11 35 19 ZW 1025,5 23 0,0
15.02.2019 13:00:00 9,2 5,2 21 11 36 20 ZW 1025,9 12 0,0
15.02.2019 12:00:00 8,4 5,0 22 12 36 20 ZW 1026,1 12 0,0
15.02.2019 11:00:00 7,8 4,7 16 9 28 15 ZW 1026,3 18 0,0
15.02.2019 10:00:00 6,5 4,5 16 9 26 14 WZW 1026,4 29 0,0
15.02.2019 09:00:00 5,6 4,1 18 10 26 14 WZW 1026,3 50 0,0
15.02.2019 08:00:00 5,5 4,1 16 9 26 14 WZW 1026,1 50 0,0
15.02.2019 07:00:00 4,9 3,6 16 8 25 13 WZW 1025,7 49 0,0
15.02.2019 06:00:00 4,8 3,5 17 9 24 13 WZW 1025,4 36 0,0
15.02.2019 05:00:00 4,9 3,9 14 7 21 11 WZW 1025,1 28 0,0
15.02.2019 04:00:00 4,1 3,1 10 5 16 9 ZW 1025,0 25 0,0
15.02.2019 03:00:00 3,7 2,5 10 5 20 11 ZZW 1025,2 21 0,0
15.02.2019 02:00:00 3,9 2,1 9 5 22 12 ZZW 1025,1 25 0,0
15.02.2019 01:00:00 4,7 2,7 12 7 28 15 WZW 1025,1 24 0,0
15.02.2019 00:00:00 4,4 2,6 13 7 29 16 WZW 1024,9 17 0,0
14.02.2019 23:00:00 4,5 2,7 18 10 36 19 WZW 1024,3 15 0,0
14.02.2019 22:00:00 4,5 2,5 22 12 39 21 WZW 1024,4 20 0,0
14.02.2019 21:00:00 5,3 2,8 22 12 39 21 WZW 1024,2 37 0,0
14.02.2019 20:00:00 5,7 3,2 26 14 38 20 ZW 1024,1 39 0,0
14.02.2019 19:00:00 5,9 3,4 22 12 38 20 WZW 1024,6 45 0,0
14.02.2019 18:00:00 6,0 3,7 22 12 40 22 WZW 1025,0 49 0,0
14.02.2019 17:00:00 6,1 3,6 24 13 40 22 WZW 1024,9 45 0,0
14.02.2019 16:00:00 6,5 4,0 27 15 40 22 WZW 1025,0 48 0,0
14.02.2019 15:00:00 6,4 3,9 25 14 39 21 WZW 1025,0 50 0,0
14.02.2019 14:00:00 6,7 4,0 22 12 37 20 WZW 1025,4 50 0,0
14.02.2019 13:00:00 7,5 4,6 20 11 35 19 ZW 1026,1 50 0,0
14.02.2019 12:00:00 7,0 4,7 21 11 34 19 ZW 1026,5 50 0,0
14.02.2019 11:00:00 6,4 4,4 16 9 34 19 ZW 1026,9 50 0,0
14.02.2019 10:00:00 5,3 4,0 22 12 32 18 WZW 1026,8 50 0,0
14.02.2019 09:00:00 5,0 3,7 21 12 31 17 WZW 1026,3 50 0,0
14.02.2019 08:00:00 3,7 2,7 12 7 18 10 ZZW 1026,4 - 0,0
14.02.2019 07:00:00 3,3 2,3 9 5 22 12 ZZW 1026,0 8 0,0
14.02.2019 06:00:00 2,9 1,9 13 7 22 12 WZW 1026,1 8 0,0
14.02.2019 05:00:00 1,8 0,2 13 7 27 14 ZW 1026,1 8 0,0
14.02.2019 04:00:00 2,6 -0,3 11 6 27 14 WZW 1025,6 7 0,0
14.02.2019 03:00:00 3,4 -0,4 17 9 29 16 WZW 1024,6 9 0,0
14.02.2019 02:00:00 3,3 -0,7 18 10 29 16 WZW 1024,3 8 0,0
14.02.2019 01:00:00 4,0 -0,8 18 10 27 15 WZW 1023,9 12 0,0
14.02.2019 00:00:00 3,3 -0,9 13 7 21 12 ZW 1023,4 8 0,0
13.02.2019 23:00:00 3,4 -0,6 11 6 29 16 ZW 1023,1 8 0,0
13.02.2019 22:00:00 4,4 0,4 14 8 29 16 W 1022,2 9 0,0
13.02.2019 21:00:00 4,7 0,5 23 12 31 17 W 1021,0 10 0,0
13.02.2019 20:00:00 5,0 0,2 19 10 36 19 WZW 1020,5 12 0,0
13.02.2019 19:00:00 5,7 0,5 20 11 36 20 WZW 1020,2 11 0,0
13.02.2019 18:00:00 5,9 0,6 23 12 36 20 W 1019,6 11 0,0
13.02.2019 17:00:00 6,3 1,0 17 9 34 18 W 1018,9 12 0,0
13.02.2019 16:00:00 6,9 1,2 19 11 34 18 W 1017,9 9 0,0
13.02.2019 15:00:00 6,6 1,3 20 11 37 20 W 1017,3 10 0,0
13.02.2019 14:00:00 5,9 1,8 25 13 37 20 W 1016,8 9 0,0
13.02.2019 13:00:00 6,2 1,7 32 17 48 26 W 1015,9 12 0,0
13.02.2019 12:00:00 5,7 1,6 32 18 49 26 WNW 1015,1 10 0,0
13.02.2019 11:00:00 6,1 1,6 40 22 49 26 WNW 1013,8 7 0,0
13.02.2019 10:00:00 5,4 1,9 34 18 58 31 W 1012,8 10 0,0
13.02.2019 09:00:00 5,2 2,0 40 22 61 33 W 1012,0 8 0,0
13.02.2019 08:00:00 5,7 2,0 48 26 61 33 W 1010,6 10 0,0
13.02.2019 07:00:00 5,1 2,5 35 19 48 26 W 1010,0 11 0,0
13.02.2019 06:00:00 4,2 2,9 23 12 48 26 WZW 1010,2 15 0,0
13.02.2019 05:00:00 3,3 2,6 30 16 48 26 ZW 1010,9 8 0,0
13.02.2019 04:00:00 2,2 1,6 29 16 49 26 ZW 1011,9 11 0,0
13.02.2019 03:00:00 1,2 0,8 29 16 49 26 ZZW 1012,9 9 0,0
13.02.2019 02:00:00 0,6 0,3 31 17 48 26 ZZW 1014,4 11 0,5
13.02.2019 01:00:00 0,2 -0,2 26 14 40 22 ZZW 1017,0 1,6 1,2
13.02.2019 00:00:00 0,2 -0,7 25 14 37 20 ZW 1019,0 1,5 0,1
12.02.2019 23:00:00 1,7 -2,8 16 9 29 16 ZW 1020,0 10 0,0
12.02.2019 22:00:00 1,3 -4,0 17 9 33 18 ZW 1020,5 12 0,0
12.02.2019 21:00:00 1,0 -4,4 18 10 32 18 ZW 1020,8 9 0,0
12.02.2019 20:00:00 1,4 -4,9 19 10 35 19 WZW 1021,1 12 0,0
12.02.2019 19:00:00 1,7 -4,6 22 12 39 21 WZW 1021,4 12 0,0
12.02.2019 18:00:00 2,2 -4,5 26 14 45 25 W 1021,4 15 0,0
12.02.2019 17:00:00 2,2 -4,3 26 14 46 25 W 1020,8 10 0,0
12.02.2019 16:00:00 2,6 -2,9 35 19 46 25 W 1020,6 10 0,0
12.02.2019 15:00:00 2,7 -3,0 31 17 43 23 W 1020,2 12 0,0
12.02.2019 14:00:00 2,5 -3,2 32 17 39 21 WNW 1019,8 12 0,0
12.02.2019 13:00:00 2,3 -3,1 27 15 41 22 W 1019,3 10 0,0
12.02.2019 12:00:00 1,7 -2,8 31 17 42 23 W 1019,1 10 0,0
12.02.2019 11:00:00 1,1 -3,2 35 19 45 25 WNW 1018,8 11 0,0
12.02.2019 10:00:00 0,7 -3,0 35 19 48 26 WNW 1018,1 11 0,0
12.02.2019 09:00:00 0,6 -2,8 35 19 56 31 WNW 1017,0 12 0,0
12.02.2019 08:00:00 0,7 -2,7 37 20 57 31 NW 1016,3 8 0,0
12.02.2019 07:00:00 0,6 -3,0 46 25 58 31 NW 1015,2 9 0,0
12.02.2019 06:00:00 0,6 -2,5 47 25 60 32 NW 1013,9 9 0,0
12.02.2019 05:00:00 0,7 -2,5 49 26 60 32 NW 1013,0 9 0,0
12.02.2019 04:00:00 0,8 -2,6 45 24 55 30 NW 1011,8 9 0,0
12.02.2019 03:00:00 0,9 -2,5 44 24 55 30 NW 1010,8 14 0,0
12.02.2019 02:00:00 0,9 -2,6 43 23 58 31 NW 1009,7 11 0,0
12.02.2019 01:00:00 1,1 -2,8 41 22 56 30 NW 1008,6 8 0,0

tt = temperatuur
td = dauwpunt
ff = windsnelheid
fx = windstoten
dd = windrichting
ppp = luchtdruk
vv = zicht
rr = neerslag

Weerstations in de omgeving